Other Public Products
Issued by NWS Charleston, SC

Current Version | Previous Version | Text Only | Print | Product List | Glossary Off
Versions: 1 2 3 4 5 6 7 8 9 10 11 12 13 14 15 16 17 18 19 20 21 22 23 24 25 26 27 28 29 30 31 32 33 34 35 36 37 38 39 40 41 42 43 44 45 46 47 48 49 50
000 FPUS82 KCHS 260712 OPUCHS TEST...KCHS/KSAV Gateway Observations...TEST National Weather Service Charleston SC 300 AM EDT FRI MAY 26 2017 NOTE: "fair" indicates few or no clouds below 12,000 feet with no significant weather and/or obstructions to visibility. SCZ050-WAZ558-NCZ071-TXZ119-213-PAZ071-DCZ001-FLZ074-172-MI076- NYZ176-178-MAZ016-IL014-TNZ027-NJZ106-GAZ044-MD014-260800- ...Gateway Observations for Charleston International... CITY SKY/WX TMP DP RH WIND PRES REMARKS Chas Airport CLEAR 64 53 67 W9 29.91S Seattle CLEAR 60 48 64 N6 29.90R Charlotte CLEAR 60 51 72 SW8 29.86R Dallas DFW MOCLDY 77 67 71 S22G30 29.65R Dallas Love MOCLDY 76 64 66 S15 29.67S Philladelphia LGT RAIN 59 57 93 W8 29.53R Wash National PTCLDY 59 57 93 S7 29.61R Baltimore PTCLDY 58 58 100 W10 29.57R Miami MOCLDY 79 74 84 S3 29.98S Detroit CLOUDY 57 54 89 NW7 29.68R Newark LGT RAIN 56 56 100 N9 29.46R Laguardia LGT RAIN 58 55 90 N6 29.45S J F K LGT RAIN 57 57 100 NW8 29.47R Boston Logan DRIZZLE 50 49 96 N7 29.56R FOG Ft. Lauderdale CLOUDY 78 76 93 S5 29.97S Chicago O`Hare PTCLDY 53 49 86 CALM 29.78R Chicago Midway PTCLDY 56 51 84 S5 29.79R Houston Bush PTCLDY 74 67 78 S10 29.80S Houston Hobby PTCLDY 74 68 81 S9 29.80F Nashville CLEAR 56 52 86 S5 29.91R Atlanta CLEAR 59 51 75 W6 29.95F $$ GAZ044-118-TXZ119-213-NCZ071-DCZ001-MDZ014-506-PAZ021-071-NJZ106- NYZ176-178-MAZ106-OHZ011-021-055-MIZ076-KYZ091-ILZ014-INZ047- MNZ060-ONZ431-260800- ...Gateway Observations for Savannah International... CITY SKY/WX TMP DP RH WIND PRES REMARKS Savannah Arpt CLEAR 61 53 75 SW3 29.95R Atlanta CLEAR 59 51 75 W6 29.95F Charlotte CLEAR 60 51 72 SW8 29.86R Dallas DFW MOCLDY 77 67 71 S22G30 29.65R Houston Bush PTCLDY 74 67 78 S10 29.80S Wash National PTCLDY 59 57 93 S7 29.61R Wash Dulles MOCLDY 54 53 97 CALM 29.61R Baltimore PTCLDY 58 58 100 W10 29.57R Philadelphia LGT RAIN 59 57 93 W8 29.53R Newark LGT RAIN 56 56 100 N9 29.46R Laguardia LGT RAIN 58 55 90 N6 29.45S J F K LGT RAIN 57 57 100 NW8 29.47R Boston DRIZZLE 50 49 96 N7 29.56R FOG Pittsburg CLOUDY 57 57 100 W6 29.63R Akron CLOUDY 59 55 87 W8 29.66R FOG Cleveland CLOUDY 60 57 89 W10 29.67R Cincinnati CLEAR 55 52 89 SW5 29.82S Columbus CLOUDY 59 56 89 W12 29.75R Detroit CLOUDY 57 54 89 NW7 29.68R Chicago O`Hare PTCLDY 53 49 86 CALM 29.78R Minneapolis CLOUDY 62 53 72 SE6 29.69S Indianapolis CLEAR 52 51 97 SW8 29.82S FOG Toronto Canada DRIZZLE 55 54 94 N5 29.56S FOG $$

USA.gov is the U.S. government's official web portal to all federal, state and local government web resources and services.